Hourly Weather Kozluk

Today, 22 October, Thursday

Time Temperature Precipitation Wind Pressure Humidity
00:00 +16°C° 0 mm 1 mps 682 mmHg 40%
01:00 +16°C° 0 mm 1 mps 682 mmHg 40%
02:00 +15°C° 0 mm 1 mps 682 mmHg 40%
03:00 +15°C° 0 mm 2 mps 682 mmHg 40%
04:00 +15°C° 0 mm 1 mps 682 mmHg 41%
05:00 +15°C° 0 mm 1 mps 682 mmHg 42%
06:00 +14°C° 0 mm 1 mps 682 mmHg 43%
07:00 +18°C° 0 mm 1 mps 682 mmHg 37%
08:00 +20°C° 0 mm 1 mps 683 mmHg 31%
09:00 +21°C° 0 mm 0 mps 684 mmHg 25%
10:00 +24°C° 0 mm 1 mps 684 mmHg 23%
11:00 +26°C° 0 mm 2 mps 684 mmHg 21%
12:00 +28°C° 0 mm 2 mps 684 mmHg 18%
13:00 +28°C° 0 mm 3 mps 684 mmHg 17%
14:00 +29°C° 0 mm 3 mps 683 mmHg 16%
15:00 +29°C° 0 mm 4 mps 683 mmHg 16%
16:00 +26°C° 0 mm 3 mps 682 mmHg 20%
17:00 +23°C° 0 mm 2 mps 682 mmHg 25%
18:00 +20°C° 0 mm 1 mps 681 mmHg 29%
19:00 +20°C° 0 mm 1 mps 681 mmHg 30%
20:00 +19°C° 0 mm 1 mps 681 mmHg 31%
21:00 +19°C° 0 mm 1 mps 682 mmHg 32%
22:00 +18°C° 0 mm 1 mps 682 mmHg 33%
23:00 +18°C° 0 mm 1 mps 681 mmHg 33%

Tomorrow, 23 October, Friday

Time Temperature Precipitation Wind Pressure Humidity
00:00 +16°C° 0 mm 1 mps 681 mmHg 34%
01:00 +16°C° 0 mm 1 mps 681 mmHg 35%
02:00 +16°C° 0 mm 1 mps 681 mmHg 36%
03:00 +15°C° 0 mm 1 mps 681 mmHg 37%
04:00 +15°C° 0 mm 1 mps 681 mmHg 37%
05:00 +15°C° 0 mm 1 mps 681 mmHg 38%
06:00 +14°C° 0 mm 1 mps 681 mmHg 39%
07:00 +18°C° 0 mm 1 mps 682 mmHg 33%
08:00 +21°C° 0 mm 1 mps 683 mmHg 28%
09:00 +23°C° 0 mm 1 mps 683 mmHg 22%
10:00 +25°C° 0 mm 1 mps 683 mmHg 20%
11:00 +27°C° 0 mm 1 mps 683 mmHg 17%
12:00 +28°C° 0 mm 2 mps 683 mmHg 15%
13:00 +29°C° 0 mm 2 mps 683 mmHg 14%
14:00 +29°C° 0 mm 2 mps 683 mmHg 13%
15:00 +30°C° 0 mm 2 mps 682 mmHg 13%
16:00 +26°C° 0 mm 2 mps 682 mmHg 18%
17:00 +23°C° 0 mm 1 mps 681 mmHg 23%
18:00 +17°C° 0 mm 0 mps 680 mmHg 28%
19:00 +17°C° 0 mm 0 mps 680 mmHg 28%
20:00 +19°C° 0 mm 1 mps 680 mmHg 28%
21:00 +19°C° 0 mm 1 mps 681 mmHg 28%
22:00 +18°C° 0 mm 1 mps 681 mmHg 27%
23:00 +18°C° 0 mm 1 mps 680 mmHg 27%

Day after tomorrow, 24 October, Saturday

Time Temperature Precipitation Wind Pressure Humidity
00:00 +18°C° 0 mm 1 mps 680 mmHg 26%
01:00 +16°C° 0 mm 1 mps 680 mmHg 26%
02:00 +16°C° 0 mm 1 mps 680 mmHg 26%
03:00 +15°C° 0 mm 2 mps 680 mmHg 27%
04:00 +15°C° 0 mm 2 mps 680 mmHg 27%
05:00 +15°C° 0 mm 2 mps 680 mmHg 28%
06:00 +15°C° 0 mm 2 mps 680 mmHg 29%
07:00 +18°C° 0 mm 1 mps 680 mmHg 25%
08:00 +21°C° 0 mm 1 mps 681 mmHg 21%
09:00 +23°C° 0 mm 1 mps 682 mmHg 17%
10:00 +25°C° 0 mm 1 mps 682 mmHg 15%
11:00 +27°C° 0 mm 1 mps 682 mmHg 13%
12:00 +29°C° 0 mm 1 mps 682 mmHg 11%
13:00 +29°C° 0 mm 2 mps 682 mmHg 10%
14:00 +30°C° 0 mm 2 mps 681 mmHg 9%
15:00 +30°C° 0 mm 2 mps 681 mmHg 9%
16:00 +26°C° 0 mm 1 mps 680 mmHg 16%
17:00 +23°C° 0 mm 1 mps 679 mmHg 23%
18:00 +17°C° 0 mm 0 mps 679 mmHg 30%
19:00 +19°C° 0 mm 1 mps 679 mmHg 28%
20:00 +18°C° 0 mm 1 mps 679 mmHg 26%
21:00 +18°C° 0 mm 1 mps 679 mmHg 24%
22:00 +18°C° 0 mm 1 mps 679 mmHg 25%
23:00 +16°C° 0 mm 1 mps 679 mmHg 26%

, 25 October, Sunday

Time Temperature Precipitation Wind Pressure Humidity
00:00 +16°C° 0 mm 1 mps 679 mmHg 26%
01:00 +16°C° 0 mm 1 mps 679 mmHg 25%
02:00 +16°C° 0 mm 1 mps 679 mmHg 25%
03:00 +16°C° 0 mm 1 mps 679 mmHg 24%
04:00 +15°C° 0 mm 1 mps 679 mmHg 24%
05:00 +15°C° 0 mm 1 mps 679 mmHg 24%
06:00 +15°C° 0 mm 1 mps 679 mmHg 24%
07:00 +19°C° 0 mm 1 mps 680 mmHg 20%
08:00 +22°C° 0 mm 1 mps 681 mmHg 16%
09:00 +24°C° 0 mm 1 mps 681 mmHg 12%
10:00 +26°C° 0 mm 2 mps 681 mmHg 11%
11:00 +27°C° 0 mm 3 mps 681 mmHg 10%
12:00 +29°C° 0 mm 3 mps 681 mmHg 9%
13:00 +29°C° 0 mm 4 mps 681 mmHg 8%
14:00 +29°C° 0 mm 4 mps 681 mmHg 8%
15:00 +29°C° 0 mm 4 mps 680 mmHg 8%
16:00 +26°C° 0 mm 3 mps 680 mmHg 11%
17:00 +23°C° 0 mm 2 mps 679 mmHg 14%
18:00 +19°C° 0 mm 1 mps 678 mmHg 18%
19:00 +19°C° 0 mm 1 mps 678 mmHg 18%
20:00 +18°C° 0 mm 1 mps 679 mmHg 19%
21:00 +18°C° 0 mm 1 mps 679 mmHg 19%
22:00 +16°C° 0 mm 1 mps 679 mmHg 19%
23:00 +16°C° 0 mm 1 mps 679 mmHg 19%

25 October, Sunday

Time Temperature Precipitation Wind Pressure Humidity
00:00 +16°C° 0 mm 1 mps 679 mmHg 26%
01:00 +16°C° 0 mm 1 mps 679 mmHg 25%
02:00 +16°C° 0 mm 1 mps 679 mmHg 25%
03:00 +16°C° 0 mm 1 mps 679 mmHg 24%
04:00 +15°C° 0 mm 1 mps 679 mmHg 24%
05:00 +15°C° 0 mm 1 mps 679 mmHg 24%
06:00 +15°C° 0 mm 1 mps 679 mmHg 24%
07:00 +19°C° 0 mm 1 mps 680 mmHg 20%
08:00 +22°C° 0 mm 1 mps 681 mmHg 16%
09:00 +24°C° 0 mm 1 mps 681 mmHg 12%
10:00 +26°C° 0 mm 2 mps 681 mmHg 11%
11:00 +27°C° 0 mm 3 mps 681 mmHg 10%
12:00 +29°C° 0 mm 3 mps 681 mmHg 9%
13:00 +29°C° 0 mm 4 mps 681 mmHg 8%
14:00 +29°C° 0 mm 4 mps 681 mmHg 8%
15:00 +29°C° 0 mm 4 mps 680 mmHg 8%
16:00 +26°C° 0 mm 3 mps 680 mmHg 11%
17:00 +23°C° 0 mm 2 mps 679 mmHg 14%
18:00 +19°C° 0 mm 1 mps 678 mmHg 18%
19:00 +19°C° 0 mm 1 mps 678 mmHg 18%
20:00 +18°C° 0 mm 1 mps 679 mmHg 19%
21:00 +18°C° 0 mm 1 mps 679 mmHg 19%
22:00 +16°C° 0 mm 1 mps 679 mmHg 19%
23:00 +16°C° 0 mm 1 mps 679 mmHg 19%

26 October, Monday

Time Temperature Precipitation Wind Pressure Humidity
00:00 +16°C° 0 mm 1 mps 679 mmHg 19%
01:00 +16°C° 0 mm 1 mps 679 mmHg 20%
02:00 +16°C° 0 mm 1 mps 679 mmHg 21%
03:00 +15°C° 0 mm 1 mps 679 mmHg 21%
04:00 +15°C° 0 mm 1 mps 679 mmHg 23%
05:00 +14°C° 0 mm 1 mps 679 mmHg 24%
06:00 +14°C° 0 mm 1 mps 679 mmHg 25%
07:00 +18°C° 0 mm 1 mps 680 mmHg 21%
08:00 +19°C° 0 mm 0 mps 681 mmHg 16%
09:00 +21°C° 0 mm 0 mps 682 mmHg 12%
10:00 +25°C° 0 mm 1 mps 682 mmHg 11%
11:00 +26°C° 0 mm 2 mps 682 mmHg 10%
12:00 +27°C° 0 mm 2 mps 682 mmHg 10%
13:00 +27°C° 0 mm 2 mps 682 mmHg 9%
14:00 +28°C° 0 mm 2 mps 682 mmHg 9%
15:00 +28°C° 0 mm 2 mps 681 mmHg 9%
16:00 +24°C° 0 mm 2 mps 681 mmHg 13%
17:00 +21°C° 0 mm 1 mps 680 mmHg 16%
18:00 +16°C° 0 mm 0 mps 680 mmHg 20%
19:00 +18°C° 0 mm 1 mps 680 mmHg 20%
20:00 +16°C° 0 mm 1 mps 680 mmHg 20%
21:00 +16°C° 0 mm 1 mps 680 mmHg 19%
22:00 +16°C° 0 mm 1 mps 680 mmHg 20%
23:00 +15°C° 0 mm 1 mps 680 mmHg 21%

27 October, Tuesday

Time Temperature Precipitation Wind Pressure Humidity
00:00 +15°C° 0 mm 1 mps 680 mmHg 22%
01:00 +14°C° 0 mm 1 mps 680 mmHg 24%
02:00 +14°C° 0 mm 1 mps 680 mmHg 27%
03:00 +13°C° 0 mm 1 mps 680 mmHg 30%
04:00 +13°C° 0 mm 1 mps 680 mmHg 30%
05:00 +13°C° 0 mm 1 mps 680 mmHg 30%
06:00 +13°C° 0 mm 1 mps 680 mmHg 30%
07:00 +15°C° 0 mm 0 mps 681 mmHg 24%
08:00 +18°C° 0 mm 0 mps 682 mmHg 18%
09:00 +21°C° 0 mm 0 mps 683 mmHg 12%
10:00 +24°C° 0 mm 1 mps 683 mmHg 11%
11:00 +26°C° 0 mm 1 mps 683 mmHg 10%
12:00 +27°C° 0 mm 2 mps 683 mmHg 9%
13:00 +27°C° 0 mm 2 mps 683 mmHg 9%
14:00 +28°C° 0 mm 2 mps 683 mmHg 9%
15:00 +28°C° 0 mm 2 mps 682 mmHg 8%
16:00 +24°C° 0 mm 2 mps 682 mmHg 14%
17:00 +21°C° 0 mm 1 mps 681 mmHg 20%
18:00 +18°C° 0 mm 1 mps 680 mmHg 26%
19:00 +16°C° 0 mm 1 mps 680 mmHg 26%
20:00 +16°C° 0 mm 1 mps 680 mmHg 26%
21:00 +15°C° 0 mm 1 mps 680 mmHg 25%
22:00 +15°C° 0 mm 1 mps 680 mmHg 25%
23:00 +15°C° 0 mm 1 mps 680 mmHg 25%
Show more